Flag for Romania Weather past 2 weeks in Bucharest, Romania

Now
82 °F

Scattered clouds.


Feels Like: 83 °F
Forecast: 68 / 90 °F
Wind: 5 mph from Northeast

Location: Bucharest / Imh

Current Time: Jul 25, 2014 at 3:00:18 PM

Latest Report: Jul 25, 2014 at 2:30 PM


Visibility: N/A

Pressure: 29.89 "Hg

Humidity: 51%

Dew point: 63 °F

Location of BucharestLocation

Historic Weather in Bucharest — Graph

°F

Bucharest temperature yesterday

Maximum temperature yesterday: 82 °F (at 4:00 PM)
Minimum temperature yesterday: 66 °F (at 1:00 AM)
Average temperature yesterday: 72 °F

Past Weeks' High & Low Weather Summary

 TemperatureHumidityPressure
High91 °F (Jul 22, 4:00 PM)100% (Jul 10, 6:30 PM)29.98 "Hg (Jul 10, 6:30 PM)
Low61 °F (Jul 12, 5:30 AM)22% (Jul 16, 2:30 PM)29.56 "Hg (Jul 11, 6:00 PM)
Average74 °F69%29.84 "Hg
* Reported Jul 10 2:00 PM — Jul 25 2:00 PM, Bucharest, Weather by CustomWeather, © 2014

Note: Actual official high and low records may vary slightly from our data, if they occured in-between our weather recording intervals... More about our weather records

Advertising

Bucharest weather history for previous 24 hours

 ConditionsComfort  
Time TempWeatherWind HumidityBarometerVisibility
2:00 PM
Jul 25
82 °FScattered clouds.2 mph55%29.89 "HgN/A
1:30 PM81 °FScattered clouds.2 mph58%29.92 "HgN/A
1:00 PM79 °FScattered clouds.2 mph61%29.92 "HgN/A
12:30 PM79 °FScattered clouds.2 mph65%29.92 "HgN/A
12:00 PM77 °FScattered clouds.2 mph69%29.92 "HgN/A
11:30 AM77 °FScattered clouds.2 mph69%29.92 "HgN/A
11:00 AM75 °FPartly sunny.2 mph74%29.92 "HgN/A
10:30 AM75 °FPartly sunny.No wind69%29.92 "HgN/A
10:00 AM73 °FPartly sunny.No wind78%29.92 "HgN/A
9:30 AM73 °FPartly sunny.2 mph83%29.92 "HgN/A
9:00 AM73 °FPartly sunny.No wind78%29.92 "HgN/A
8:30 AM73 °FScattered clouds.No wind83%29.89 "HgN/A
8:00 AM70 °FSunny.No wind94%29.89 "Hg10 mi
7:30 AM68 °FSunny.No wind94%29.89 "Hg10 mi
7:00 AM66 °FFog.No wind100%29.86 "HgN/A
6:30 AM66 °FFog.No wind94%29.86 "Hg5 mi
6:00 AM66 °FFog.No wind94%29.86 "Hg5 mi
5:30 AM66 °FClear.No wind94%29.86 "Hg6 mi
5:00 AM66 °FClear.No wind94%29.86 "Hg10 mi
4:30 AM66 °FClear.No wind94%29.86 "Hg4 mi
4:00 AM66 °FFog.No wind100%29.86 "Hg3 mi
3:30 AM66 °FClear.No wind100%29.86 "HgN/A
3:00 AM66 °FFog.2 mph100%29.86 "Hg3 mi
2:30 AM68 °FClear.No wind94%29.86 "Hg4 mi
2:00 AM66 °FClear.No wind100%29.86 "Hg5 mi
1:30 AM68 °FClear.No wind94%29.86 "Hg10 mi
1:00 AM68 °FClear.2 mph94%29.86 "Hg10 mi
12:30 AM70 °FClear.2 mph88%29.86 "Hg10 mi
12:00 AM70 °FClear.No wind88%29.86 "Hg10 mi
11:30 PM
Jul 24
72 °FClear.2 mph88%29.86 "Hg10 mi
11:00 PM72 °FClear.No wind88%29.83 "Hg10 mi
10:30 PM72 °FClear.2 mph88%29.83 "Hg10 mi
10:00 PM72 °FPassing clouds.2 mph83%29.83 "HgN/A
9:30 PM73 °FSprinkles. Passing clouds.2 mph74%29.83 "HgN/A
9:00 PM73 °FPassing clouds.2 mph74%29.83 "HgN/A
8:30 PM73 °FPassing clouds.5 mph69%29.83 "HgN/A
8:00 PM73 °FScattered clouds.12 mph74%29.83 "HgN/A
7:30 PM75 °FScattered clouds.12 mph69%29.83 "HgN/A
7:00 PM77 °FScattered clouds.14 mph69%29.83 "HgN/A
6:30 PM81 °FPassing clouds.5 mph58%29.80 "HgN/A
6:00 PM81 °FWarm.2 mph58%29.80 "HgN/A
5:30 PM81 °FPassing clouds.5 mph54%29.80 "HgN/A
5:00 PM82 °FScattered clouds.5 mph51%29.80 "HgN/A
4:30 PM82 °FScattered clouds.2 mph51%29.80 "HgN/A
4:00 PM82 °FPartly sunny.5 mph51%29.80 "HgN/A
3:30 PM81 °FPartly sunny.5 mph62%29.80 "HgN/A
3:00 PM79 °FPartly sunny.2 mph65%29.80 "HgN/A
Weather by CustomWeather, © 2014

See weather overviewHow to use our weather pages